Погода в Вятских Полянах

Россия / Кировская область     56°13′22″N   51°04′29″E
темп.,
°C
ветер,
м/с
пор.,
м/с
влажн.,
%
обл.,
%
осадки,
мм/ч
давл.,
гПа
погр.,
м
2 марта, вт
вт200:00−14юз61295100 0.0 1013301
03:00−11ююз71493100 0.1 1009368
06:00−9юз81593100 0.5 1003534
09:00−5юз81594100 1.0 1000630
12:00−1юз71296100 1.1 998605
15:000з6119898 1.8 997610
18:00−3зюз4119396 0.2 996278
21:00−3з6129379 0.2 997407
3 марта, ср
ср300:00−3з5109492 0.3 997370
03:00−5з489594 0.4 999178
06:00−8з359680 0.1 999100
09:00−4з469689 0.4 1000310
12:00−3зсз5794100 0.8 1000560
15:00−4сз61093100 1.1 1001688
18:00−6сз6129098 0.1 1001670
21:00−8зсз5119199 0.2 1003341
4 марта, чт
чт400:00−10з4109484 0.1 1002228
03:00−10зюз4109487 0.1 1002227
06:00−8зюз5129499 0.3 1000437
09:00−5зюз6119293 0.4 999576
12:00−3юз7119099 0.1 997844
15:00−2юз71294100 0.4 994786
18:00−1юз81695100 0.8 991888
21:00−3з81682100 1.7 992716
5 марта, пт
пт500:00−5з61390100 0.0 995514
03:00−9зсз3695100 0.0 997126
06:00−11сз3395100 0.0 99962
09:00−11ссз3591100 0.0 1000232
12:00−9сз4688100 0.0 1002338
15:00−10сз488867 0.0 1004431
18:00−14зсз36930 0.0 100786
21:00−16зсз349613 0.0 101056
6 марта, сб
сб600:00−17з349763 0.0 101251
03:00−19з239846 0.0 101321
06:00−20зюз22980 0.0 101420
09:00−14ююз129138 0.0 1014119
12:00−11ююз249051 0.0 1013263
15:00−9ю359157 0.0 1011342
18:00−12юз339698 0.1 101075
21:00−13юз239699 0.3 101047